COSMOS 1992

Satellite information

Favourite Embed

Satellite Type and Status

PAYLOADIN ORBIT

Key statistics

Satellite COSMOS 1992 at a glance.

Uptime

13471

Days in orbit

Revolutions

≈ 14.4

Per day

Orbit

LEO

Low Earth Orbit

Inclination

74.0

Latest

Satellite identification and parameters

Extended collection of information and parameters for COSMOS 1992.

Object identification

Identified? True

Debris? False

Object name: COSMOS 1992

International designator: 1989-005A

Object number (NORAD): 19769

Object ID (CCSDS): 19769

Country: COMMONWEALTH OF INDEPENDENT STATES (CIS)

Current information (Y/N): Y

RCS size: LARGE

Orbital parameters

Period: 100.295 minutes

Inclination: 74.0461 deg

SMA: 7150.642 km

Apoapsis: 787.668 km

Periapsis: 757.346 km

RAAN: 231.5324 deg

Eccentricy: 0.00212021

Argument of periapsis: 125.6062 deg

Mean anomaly: 234.7071 deg

Mean motion: 14.35771101 rev/day

Mean motion (dot): 0.00000222 rev/day2

B* drag term: 0.0000856117 1/REarth

Two-line elements (TLE)

Creation date: Dec. 12, 2025, 10:14 a.m.

Reference frame: TEME

Reference center: EARTH

Epoch: Dec. 12, 2025, 2:36 a.m. UTC

TLE line 0: 0 COSMOS 1992

TLE line 1: 1 19769U 89005A 25346.10884549 .00000222 00000-0 85612-4 0 9995

TLE line 2: 2 19769 74.0461 231.5324 0021202 125.6062 234.7071 14.35771101929997

Live tracking on map

Real-time ground track for satellite COSMOS 1992.

In-orbit conjunctions

A list of the most updated potential collisions computed for object COSMOS 1992.

Target Orbit TCA Probability of collision Miss distance Type
CZ-3C DEB MEO 2025-08-13 08:33:23 0.0001734927 565.0 (m) DEBRIS
FENGYUN 1C DEB SSO 2025-07-24 01:36:55 0.0001458407 202.0 (m) DEBRIS
FENGYUN 1C DEB SSO 2025-05-26 04:31:23 0.0006102453 492.0 (m) DEBRIS
COSMOS 1867 COOLANT LEO 2025-04-19 19:46:25 0.0008016404 363.0 (m) DEBRIS
FENGYUN 1C DEB SSO 2025-03-25 21:26:15 0.000192273 285.0 (m) DEBRIS

Associated space launch

Military communications satellite

COSMOS 1992 was lifted into orbit during the mission ‘Kosmos-3M | Strela-2M 46’, on board a Kosmos-3M space rocket.

The launch took place on Jan. 26, 1989, 3:36 p.m. from 132/2.

For more information about the launch, click the button.

Launch to space Kosmos-3M | Strela-2M 46
Kosmos-3M | Strela-2M 46

Agency: N/A

Status: Launch Successful

Launch date: Jan. 26, 1989, 3:36 p.m. UTC

Rocket: Kosmos-3M

Launch pad: 132/2

Location: Plesetsk Cosmodrome, Russian Federation

...

Latest news about this satellite

There are no fresh news available about this satellite. Check back as we update our databases every day.


Newsletter sign-up

Weekly statistics, charts and insights to help you stay on top of the space industry.